Location: Dattensoll
(49.9928°N, 9.8954°E)
Time: 20:22:43
(UTC+00:00)

USA 245 - Pass Details

Date: 19 May 2025
Orbit: 292 x 1030 km, 97.9° (Epoch: 02 June)

Event Time Altitude Azimuth Distance (km) Brightness Sun altitude
Exits shadow 20:37:31 11° 177° (S) 1,899 5.6 -11.7°
Maximum altitude 20:41:39 66° 260° (W) 787 4.2 -12.1°
Drops below altitude 10° 20:47:04 10° 342° (NNW) 2,460 7.9 -12.6°
Sets 20:49:44 0° 345° (NNW) 3,507 8.9 -12.8°
